| time (UTC) | temp F | wind direction | speed knots | gust knots | rain 1hr in | rain 24hr in | rain mn in | humidity % | barometer mb |
| 20260831122006 | 53 | 242 | 12.2 | 17.4 | 0.00 | 0.11 | 0.00 | 43 | 1010.7 |
| 20260831121506 | 53 | 236 | 8.7 | 13.9 | 0.00 | 0.11 | 0.00 | 44 | 1010.7 |
| 20260831121005 | 53 | 234 | 9.6 | 17.4 | 0.00 | 0.11 | 0.00 | 44 | 1010.7 |
| 20260831120005 | 53 | 234 | 10.4 | 14.8 | 0.00 | 0.11 | 0.00 | 45 | 1010.7 |
| 20260831115506 | 53 | 231 | 8.7 | 14.8 | 0.00 | 0.11 | 0.00 | 45 | 1010.7 |
| 20260831115006 | 53 | 235 | 8.7 | 12.2 | 0.00 | 0.12 | 0.00 | 45 | 1010.7 |
| 20260831114506 | 53 | 236 | 8.7 | 12.2 | 0.00 | 0.12 | 0.00 | 46 | 1010.8 |
| 20260831114006 | 53 | 234 | 8.7 | 12.2 | 0.00 | 0.12 | 0.00 | 46 | 1010.8 |
| 20260831113506 | 53 | 231 | 8.7 | 11.3 | 0.00 | 0.12 | 0.00 | 47 | 1010.8 |
| 20260831113005 | 53 | 233 | 8.7 | 12.2 | 0.00 | 0.12 | 0.00 | 47 | 1010.8 |
| 20260831112506 | 53 | 229 | 8.7 | 12.2 | 0.00 | 0.12 | 0.00 | 47 | 1010.8 |
| 20260831112005 | 53 | 229 | 7.8 | 11.3 | 0.00 | 0.12 | 0.00 | 47 | 1010.7 |
| 20260831111505 | 53 | 226 | 7.8 | 11.3 | 0.00 | 0.12 | 0.00 | 47 | 1010.8 |
| 20260831111005 | 53 | 227 | 7.0 | 11.3 | 0.00 | 0.12 | 0.00 | 47 | 1010.8 |
| 20260831110005 | 53 | 232 | 7.8 | 10.4 | 0.00 | 0.12 | 0.00 | 47 | 1010.9 |
| 20260831105506 | 53 | 232 | 7.8 | 10.4 | 0.00 | 0.12 | 0.00 | 46 | 1010.9 |
| 20260831105006 | 53 | 228 | 7.0 | 11.3 | 0.00 | 0.12 | 0.00 | 46 | 1010.8 |
| 20260831104505 | 53 | 228 | 7.8 | 12.2 | 0.00 | 0.12 | 0.00 | 46 | 1010.8 |
| 20260831104005 | 53 | 230 | 8.7 | 13.9 | 0.00 | 0.12 | 0.00 | 46 | 1010.8 |
| 20260831103005 | 53 | 232 | 8.7 | 13.9 | 0.00 | 0.12 | 0.00 | 46 | 1010.7 |
| 20260831102505 | 53 | 231 | 7.8 | 12.2 | 0.00 | 0.12 | 0.00 | 46 | 1010.7 |
| 20260831101505 | 53 | 231 | 7.8 | 11.3 | 0.00 | 0.12 | 0.00 | 48 | 1010.8 |
| 20260831101006 | 53 | 225 | 7.0 | 11.3 | 0.00 | 0.12 | 0.00 | 48 | 1010.7 |
| 20260831100005 | 53 | 231 | 6.1 | 10.4 | 0.00 | 0.12 | 0.00 | 48 | 1010.7 |
| 20260831095506 | 53 | 212 | 6.1 | 10.4 | 0.00 | 0.12 | 0.00 | 48 | 1010.7 |
| 20260831095006 | 53 | 229 | 6.1 | 10.4 | 0.00 | 0.12 | 0.00 | 48 | 1010.7 |
| 20260831094506 | 53 | 231 | 6.1 | 10.4 | 0.00 | 0.12 | 0.00 | 48 | 1010.7 |
| 20260831094005 | 53 | 231 | 6.1 | 10.4 | 0.00 | 0.12 | 0.00 | 48 | 1010.7 |
| 20260831093505 | 53 | 231 | 6.1 | 10.4 | 0.00 | 0.12 | 0.00 | 48 | 1010.7 |
| 20260831093005 | 53 | 233 | 6.1 | 10.4 | 0.00 | 0.12 | 0.00 | 48 | 1010.7 |
| 20260831092506 | 53 | 231 | 6.1 | 10.4 | 0.00 | 0.12 | 0.00 | 48 | 1010.8 |
| 20260831092006 | 53 | 230 | 6.1 | 8.7 | 0.00 | 0.12 | 0.00 | 48 | 1010.7 |
| 20260831091505 | 53 | 222 | 5.2 | 8.7 | 0.00 | 0.12 | 0.00 | 48 | 1010.7 |
| 20260831090005 | 53 | 229 | 5.2 | 8.7 | 0.00 | 0.12 | 0.00 | 49 | 1010.7 |
| 20260831085505 | 52 | 210 | 5.2 | 8.7 | 0.00 | 0.12 | 0.00 | 49 | 1010.8 |
| 20260831085005 | 52 | 205 | 6.1 | 10.4 | 0.00 | 0.12 | 0.00 | 50 | 1010.7 |
| 20260831084506 | 52 | 206 | 7.0 | 10.4 | 0.00 | 0.12 | 0.00 | 50 | 1010.7 |
| 20260831083006 | 53 | 213 | 4.3 | 7.8 | 0.00 | 0.12 | 0.00 | 49 | 1010.7 |
| 20260831082506 | 53 | 207 | 4.3 | 8.7 | 0.00 | 0.12 | 0.00 | 49 | 1010.7 |
| 20260831082006 | 53 | 202 | 5.2 | 8.7 | 0.00 | 0.12 | 0.00 | 49 | 1010.7 |
| 20260831081506 | 53 | 200 | 5.2 | 7.8 | 0.00 | 0.12 | 0.00 | 48 | 1010.7 |
| 20260831081006 | 54 | 220 | 3.5 | 7.8 | 0.00 | 0.12 | 0.00 | 47 | 1010.7 |
| 20260831080006 | 54 | 218 | 4.3 | 7.8 | 0.00 | 0.12 | 0.00 | 47 | 1010.6 |
| 20260831075505 | 54 | 213 | 4.3 | 7.8 | 0.00 | 0.12 | 0.00 | 48 | 1010.6 |
| 20260831075006 | 54 | 197 | 4.3 | 7.8 | 0.00 | 0.12 | 0.00 | 47 | 1010.5 |
| 20260831074505 | 54 | 202 | 3.5 | 7.8 | 0.00 | 0.12 | 0.00 | 48 | 1010.4 |
| 20260831074006 | 54 | 217 | 4.3 | 8.7 | 0.00 | 0.12 | 0.00 | 48 | 1010.4 |
| 20260831073505 | 54 | 202 | 6.1 | 8.7 | 0.00 | 0.12 | 0.00 | 48 | 1010.4 |
| 20260831072505 | 54 | 199 | 5.2 | 8.7 | 0.00 | 0.12 | 0.00 | 48 | 1010.3 |
| 20260831072006 | 54 | 207 | 4.3 | 7.0 | 0.00 | 0.12 | 0.00 | 48 | 1010.3 |
| 20260831071505 | 54 | 206 | 5.2 | 7.8 | 0.00 | 0.12 | 0.00 | 47 | 1010.3 |
| 20260831071005 | 54 | 205 | 5.2 | 7.8 | 0.00 | 0.12 | 0.00 | 48 | 1010.2 |
| 20260831070005 | 54 | 201 | 6.1 | 10.4 | 0.00 | 0.12 | 0.00 | 48 | 1010.1 |
| 20260831065505 | 55 | 196 | 7.8 | 8.7 | 0.00 | 0.12 | 0.00 | 47 | 1010.0 |
| 20260831065005 | 55 | 211 | 4.3 | 8.7 | 0.00 | 0.12 | 0.00 | 46 | 1010.0 |
| 20260831064505 | 55 | 230 | 5.2 | 7.8 | 0.00 | 0.12 | 0.00 | 46 | 1009.9 |
| 20260831064005 | 55 | 229 | 5.2 | 6.1 | 0.00 | 0.12 | 0.00 | 47 | 1009.8 |
| 20260831063505 | 55 | 223 | 4.3 | 6.1 | 0.00 | 0.12 | 0.00 | 48 | 1009.8 |
| 20260831063005 | 55 | 222 | 4.3 | 8.7 | 0.00 | 0.12 | 0.00 | 48 | 1009.8 |
| 20260831062005 | 55 | 204 | 5.2 | 8.7 | 0.00 | 0.12 | 0.00 | 47 | 1009.7 |
| 20260831061505 | 55 | 201 | 7.0 | 8.7 | 0.00 | 0.12 | 0.00 | 47 | 1009.6 |
| 20260831061006 | 56 | 205 | 5.2 | 8.7 | 0.00 | 0.12 | 0.00 | 46 | 1009.5 |
| 20260831060006 | 56 | 217 | 5.2 | 7.8 | 0.00 | 0.12 | 0.00 | 46 | 1009.3 |
| 20260831055505 | 56 | 226 | 5.2 | 8.7 | 0.00 | 0.12 | 0.12 | 46 | 1009.2 |
| 20260831055006 | 56 | 218 | 5.2 | 8.7 | 0.00 | 0.12 | 0.12 | 46 | 1009.2 |
| 20260831054505 | 56 | 208 | 5.2 | 8.7 | 0.00 | 0.12 | 0.12 | 46 | 1009.1 |
| 20260831054005 | 56 | 218 | 5.2 | 8.7 | 0.00 | 0.12 | 0.12 | 46 | 1009.1 |
| 20260831053505 | 56 | 218 | 5.2 | 8.7 | 0.00 | 0.12 | 0.12 | 47 | 1009.1 |
| 20260831053006 | 56 | 216 | 4.3 | 7.8 | 0.00 | 0.12 | 0.12 | 47 | 1009.0 |
| 20260831052505 | 56 | 213 | 5.2 | 8.7 | 0.00 | 0.12 | 0.12 | 47 | 1009.0 |
| 20260831052005 | 56 | 229 | 5.2 | 8.7 | 0.00 | 0.12 | 0.12 | 46 | 1009.1 |
| 20260831051005 | 56 | 208 | 4.3 | 7.0 | 0.00 | 0.13 | 0.12 | 46 | 1009.1 |
| 20260831050005 | 57 | 233 | 4.3 | 7.0 | 0.00 | 0.13 | 0.12 | 43 | 1009.1 |
| 20260831045505 | 57 | 227 | 4.3 | 7.8 | 0.00 | 0.13 | 0.12 | 43 | 1009.1 |
| 20260831045005 | 57 | 203 | 4.3 | 7.8 | 0.00 | 0.13 | 0.12 | 43 | 1009.1 |
| 20260831044505 | 57 | 200 | 5.2 | 8.7 | 0.00 | 0.13 | 0.12 | 42 | 1009.0 |
| 20260831043505 | 58 | 198 | 5.2 | 7.8 | 0.00 | 0.13 | 0.12 | 40 | 1009.1 |
| 20260831043005 | 58 | 205 | 2.6 | 6.1 | 0.00 | 0.13 | 0.12 | 38 | 1009.1 |
| 20260831042005 | 58 | 199 | 4.3 | 8.7 | 0.00 | 0.13 | 0.12 | 38 | 1008.9 |
| 20260831041505 | 58 | 184 | 3.5 | 10.4 | 0.00 | 0.13 | 0.12 | 39 | 1008.9 |
| 20260831040005 | 59 | 190 | 4.3 | 5.2 | 0.00 | 0.13 | 0.12 | 38 | 1008.7 |
| 20260831035505 | 59 | 201 | 2.6 | 7.0 | 0.00 | 0.13 | 0.12 | 37 | 1008.6 |
| 20260831035005 | 59 | 199 | 2.6 | 7.0 | 0.00 | 0.13 | 0.12 | 37 | 1008.7 |
| 20260831034505 | 59 | 194 | 5.2 | 10.4 | 0.00 | 0.13 | 0.12 | 38 | 1008.7 |
| 20260831034005 | 59 | 184 | 6.1 | 10.4 | 0.00 | 0.13 | 0.12 | 39 | 1008.7 |
| 20260831033505 | 60 | 182 | 6.1 | 7.8 | 0.00 | 0.13 | 0.12 | 40 | 1008.6 |
| 20260831033005 | 60 | 196 | 4.3 | 7.0 | 0.00 | 0.13 | 0.12 | 39 | 1008.5 |
| 20260831032505 | 60 | 192 | 4.3 | 7.0 | 0.00 | 0.13 | 0.12 | 40 | 1008.5 |
| 20260831032005 | 60 | 226 | 4.3 | 7.8 | 0.00 | 0.13 | 0.12 | 39 | 1008.5 |
| 20260831031505 | 60 | 209 | 2.6 | 7.8 | 0.00 | 0.13 | 0.12 | 40 | 1008.4 |
| 20260831031005 | 60 | 201 | 5.2 | 7.8 | 0.00 | 0.13 | 0.12 | 40 | 1008.4 |
| 20260831030005 | 61 | 228 | 4.3 | 5.2 | 0.00 | 0.13 | 0.12 | 38 | 1008.3 |
| 20260831025505 | 61 | 230 | 2.6 | 5.2 | 0.00 | 0.13 | 0.12 | 38 | 1008.1 |
| 20260831025006 | 61 | 230 | 4.3 | 5.2 | 0.00 | 0.13 | 0.12 | 37 | 1008.0 |
| 20260831024506 | 61 | 230 | 2.6 | 5.2 | 0.00 | 0.13 | 0.12 | 37 | 1008.0 |
| 20260831024005 | 61 | 228 | 2.6 | 7.0 | 0.00 | 0.13 | 0.12 | 37 | 1007.9 |
| 20260831023505 | 62 | 200 | 4.3 | 7.0 | 0.00 | 0.13 | 0.12 | 36 | 1007.8 |
| 20260831023006 | 62 | 201 | 4.3 | 6.1 | 0.00 | 0.13 | 0.12 | 36 | 1007.7 |
| 20260831022504 | 63 | 229 | 4.3 | 7.8 | 0.00 | 0.13 | 0.12 | 34 | 1007.6 |
| 20260831022005 | 64 | 229 | 3.5 | 10.4 | 0.00 | 0.13 | 0.12 | 34 | 1007.5 |
| 20260831021505 | 64 | 239 | 6.1 | 11.3 | 0.00 | 0.13 | 0.12 | 33 | 1007.6 |
| 20260831021006 | 64 | 251 | 7.8 | 11.3 | 0.00 | 0.13 | 0.12 | 32 | 1007.4 |
| 20260831015505 | 65 | 270 | 8.7 | 13.9 | 0.00 | 0.13 | 0.12 | 29 | 1007.4 |
| 20260831015006 | 66 | 267 | 8.7 | 12.2 | 0.00 | 0.13 | 0.12 | 29 | 1007.3 |
| 20260831014505 | 66 | 261 | 7.0 | 12.2 | 0.00 | 0.13 | 0.12 | 29 | 1007.3 |
| 20260831013505 | 66 | 259 | 10.4 | 13.9 | 0.00 | 0.13 | 0.12 | 29 | 1007.3 |
| 20260831013005 | 66 | 259 | 9.6 | 13.9 | 0.00 | 0.13 | 0.12 | 29 | 1007.3 |
| 20260831012505 | 67 | 265 | 9.6 | 13.0 | 0.00 | 0.13 | 0.12 | 29 | 1007.3 |
| 20260831011505 | 67 | 268 | 10.4 | 13.0 | 0.00 | 0.13 | 0.12 | 28 | 1007.3 |
| 20260831011005 | 67 | 263 | 7.8 | 15.6 | 0.00 | 0.13 | 0.12 | 29 | 1007.4 |
| 20260831010005 | 67 | 272 | 10.4 | 15.6 | 0.00 | 0.13 | 0.12 | 29 | 1007.4 |
| 20260831005505 | 67 | 277 | 8.7 | 14.8 | 0.00 | 0.13 | 0.12 | 31 | 1007.3 |
| 20260831004505 | 67 | 283 | 8.7 | 17.4 | 0.00 | 0.13 | 0.12 | 32 | 1007.3 |
| 20260831004005 | 67 | 294 | 10.4 | 17.4 | 0.00 | 0.13 | 0.12 | 31 | 1007.3 |
| 20260831003505 | 67 | 285 | 10.4 | 17.4 | 0.00 | 0.15 | 0.12 | 31 | 1007.1 |
| 20260831003005 | 68 | 278 | 8.7 | 17.4 | 0.00 | 0.21 | 0.12 | 31 | 1007.1 |
| 20260831002505 | 68 | 287 | 10.4 | 17.4 | 0.00 | 0.23 | 0.12 | 31 | 1007.1 |
| 20260831002006 | 69 | 281 | 10.4 | 15.6 | 0.00 | 0.23 | 0.12 | 30 | 1007.1 |
| 20260831001505 | 69 | 286 | 12.2 | 17.4 | 0.00 | 0.23 | 0.12 | 29 | 1007.0 |
| 20260831001005 | 70 | 272 | 12.2 | 17.4 | 0.00 | 0.23 | 0.12 | 29 | 1007.1 |
| 20260831000005 | 70 | 281 | 12.2 | 20.9 | 0.00 | 0.23 | 0.12 | 29 | 1007.0 |
| 20260830235505 | 70 | 282 | 14.8 | 19.1 | 0.00 | 0.23 | 0.12 | 28 | 1006.9 |
| 20260830235005 | 70 | 284 | 10.4 | 19.1 | 0.00 | 0.23 | 0.12 | 29 | 1006.8 |
| 20260830234505 | 70 | 274 | 12.2 | 22.6 | 0.00 | 0.23 | 0.12 | 29 | 1006.9 |
| 20260830234005 | 70 | 286 | 13.9 | 22.6 | 0.00 | 0.23 | 0.12 | 28 | 1007.0 |
| 20260830233505 | 70 | 276 | 15.6 | 22.6 | 0.00 | 0.23 | 0.12 | 27 | 1006.9 |
| 20260830233005 | 70 | 273 | 13.9 | 22.6 | 0.00 | 0.23 | 0.12 | 28 | 1006.9 |
| 20260830232505 | 70 | 289 | 14.8 | 20.9 | 0.00 | 0.23 | 0.12 | 28 | 1006.8 |
| 20260830232006 | 70 | 270 | 14.8 | 22.6 | 0.00 | 0.23 | 0.12 | 27 | 1006.8 |
| 20260830231505 | 70 | 275 | 15.6 | 22.6 | 0.00 | 0.23 | 0.12 | 28 | 1006.8 |
| 20260830231005 | 70 | 275 | 14.8 | 21.7 | 0.00 | 0.23 | 0.12 | 28 | 1006.9 |
| 20260830230005 | 70 | 274 | 13.0 | 19.1 | 0.00 | 0.23 | 0.12 | 29 | 1006.9 |
| 20260830224505 | 70 | 284 | 12.2 | 21.7 | 0.00 | 0.23 | 0.12 | 30 | 1006.9 |
| 20260830224005 | 70 | 264 | 13.9 | 21.7 | 0.00 | 0.23 | 0.12 | 28 | 1007.0 |
| 20260830223505 | 70 | 280 | 12.2 | 20.0 | 0.00 | 0.23 | 0.12 | 28 | 1006.9 |
| 20260830223005 | 69 | 299 | 13.0 | 20.9 | 0.00 | 0.23 | 0.12 | 29 | 1006.9 |
| 20260830222505 | 69 | 298 | 11.3 | 20.9 | 0.00 | 0.23 | 0.12 | 30 | 1006.9 |
| 20260830222005 | 69 | 283 | 12.2 | 22.6 | 0.00 | 0.23 | 0.12 | 29 | 1006.9 |
| 20260830221505 | 69 | 278 | 13.9 | 22.6 | 0.00 | 0.23 | 0.12 | 30 | 1007.0 |
| 20260830220005 | 69 | 292 | 10.4 | 17.4 | 0.00 | 0.23 | 0.12 | 32 | 1007.2 |
| 20260830215505 | 69 | 280 | 11.3 | 17.4 | 0.00 | 0.23 | 0.12 | 32 | 1007.3 |
| 20260830215005 | 69 | 287 | 10.4 | 17.4 | 0.00 | 0.23 | 0.12 | 34 | 1007.3 |
| 20260830214005 | 68 | 297 | 10.4 | 21.7 | 0.00 | 0.23 | 0.12 | 35 | 1007.3 |
| 20260830213505 | 68 | 297 | 13.0 | 21.7 | 0.00 | 0.23 | 0.12 | 35 | 1007.5 |
| 20260830213005 | 68 | 286 | 12.2 | 22.6 | 0.00 | 0.23 | 0.12 | 34 | 1007.6 |
| 20260830212505 | 68 | 287 | 12.2 | 22.6 | 0.00 | 0.23 | 0.12 | 35 | 1007.7 |
| 20260830212005 | 68 | 283 | 12.2 | 21.7 | 0.00 | 0.23 | 0.12 | 36 | 1007.8 |
| 20260830211504 | 67 | 300 | 12.2 | 20.0 | 0.00 | 0.23 | 0.12 | 36 | 1007.7 |
| 20260830211005 | 67 | 298 | 13.0 | 20.9 | 0.00 | 0.23 | 0.12 | 36 | 1007.6 |
| 20260830210005 | 67 | 295 | 14.8 | 22.6 | 0.00 | 0.23 | 0.12 | 36 | 1007.7 |
| 20260830205504 | 67 | 279 | 12.2 | 19.1 | 0.00 | 0.23 | 0.12 | 37 | 1007.7 |
| 20260830205004 | 67 | 284 | 13.0 | 18.2 | 0.00 | 0.23 | 0.12 | 39 | 1007.6 |
| 20260830204505 | 67 | 276 | 10.4 | 18.2 | 0.00 | 0.23 | 0.12 | 43 | 1007.6 |
| 20260830204004 | 66 | 283 | 9.6 | 17.4 | 0.00 | 0.23 | 0.12 | 44 | 1007.6 |
| 20260830203505 | 66 | 284 | 12.2 | 17.4 | 0.00 | 0.23 | 0.12 | 43 | 1007.7 |
| 20260830203005 | 66 | 293 | 10.4 | 17.4 | 0.00 | 0.23 | 0.12 | 45 | 1007.7 |
| 20260830202005 | 65 | 276 | 10.4 | 19.1 | 0.00 | 0.23 | 0.12 | 47 | 1007.6 |
| 20260830201504 | 65 | 261 | 13.9 | 20.9 | 0.00 | 0.23 | 0.12 | 45 | 1007.6 |
| 20260830201005 | 65 | 272 | 11.3 | 20.9 | 0.00 | 0.23 | 0.12 | 46 | 1007.5 |
| 20260830195505 | 64 | 263 | 11.3 | 18.2 | 0.00 | 0.23 | 0.12 | 51 | 1007.3 |
| 20260830195005 | 64 | 274 | 11.3 | 18.2 | 0.00 | 0.23 | 0.12 | 52 | 1007.5 |
| 20260830194504 | 64 | 257 | 12.2 | 18.2 | 0.00 | 0.23 | 0.12 | 52 | 1007.4 |
| 20260830194005 | 64 | 276 | 12.2 | 17.4 | 0.00 | 0.23 | 0.12 | 53 | 1007.5 |
| 20260830193504 | 63 | 277 | 10.4 | 17.4 | 0.00 | 0.23 | 0.12 | 54 | 1007.6 |
| 20260830193004 | 63 | 274 | 11.3 | 18.2 | 0.00 | 0.23 | 0.12 | 53 | 1007.7 |
| 20260830192505 | 63 | 270 | 11.3 | 18.2 | 0.00 | 0.23 | 0.12 | 55 | 1007.7 |
| 20260830192004 | 62 | 285 | 11.3 | 19.1 | 0.00 | 0.23 | 0.12 | 57 | 1007.7 |
| 20260830191504 | 62 | 277 | 13.9 | 19.1 | 0.00 | 0.23 | 0.12 | 56 | 1007.7 |
| 20260830191005 | 62 | 273 | 13.9 | 19.1 | 0.00 | 0.23 | 0.12 | 55 | 1007.7 |
| 20260830190005 | 61 | 271 | 12.2 | 18.2 | 0.00 | 0.23 | 0.12 | 57 | 1007.5 |
| 20260830185504 | 61 | 273 | 11.3 | 20.9 | 0.00 | 0.23 | 0.12 | 59 | 1007.5 |
| 20260830184504 | 61 | 270 | 14.8 | 20.0 | 0.00 | 0.23 | 0.12 | 58 | 1007.8 |
| 20260830183505 | 60 | 271 | 12.2 | 20.9 | 0.00 | 0.23 | 0.12 | 59 | 1007.6 |
| 20260830183005 | 60 | 271 | 13.9 | 20.9 | 0.00 | 0.23 | 0.12 | 61 | 1007.6 |
| 20260830182504 | 60 | 276 | 12.2 | 20.0 | 0.00 | 0.23 | 0.12 | 61 | 1007.6 |
| 20260830182005 | 60 | 281 | 13.9 | 20.0 | 0.00 | 0.23 | 0.12 | 63 | 1007.6 |
| 20260830181504 | 60 | 274 | 13.9 | 19.1 | 0.00 | 0.23 | 0.12 | 62 | 1007.6 |
| 20260830181005 | 59 | 263 | 10.4 | 18.2 | 0.00 | 0.23 | 0.12 | 66 | 1007.7 |
| 20260830180005 | 59 | 270 | 12.2 | 20.9 | 0.00 | 0.23 | 0.12 | 65 | 1007.9 |
| 20260830175505 | 58 | 265 | 13.0 | 19.1 | 0.00 | 0.23 | 0.12 | 65 | 1007.8 |
| 20260830175004 | 58 | 275 | 13.0 | 17.4 | 0.00 | 0.23 | 0.12 | 66 | 1007.7 |
| 20260830174505 | 58 | 268 | 11.3 | 20.0 | 0.00 | 0.23 | 0.12 | 69 | 1007.7 |
| 20260830174005 | 57 | 279 | 12.2 | 20.0 | 0.00 | 0.23 | 0.12 | 70 | 1007.9 |
| 20260830173504 | 57 | 284 | 12.2 | 17.4 | 0.00 | 0.23 | 0.12 | 72 | 1007.9 |
| 20260830172005 | 55 | 292 | 10.4 | 14.8 | 0.00 | 0.23 | 0.12 | 74 | 1007.9 |
| 20260830171505 | 54 | 284 | 10.4 | 14.8 | 0.00 | 0.23 | 0.12 | 77 | 1008.2 |
| 20260830171005 | 54 | 281 | 10.4 | 15.6 | 0.00 | 0.23 | 0.12 | 77 | 1008.2 |
| 20260830170005 | 54 | 271 | 10.4 | 15.6 | 0.00 | 0.23 | 0.12 | 77 | 1008.1 |
| 20260830165004 | 53 | 250 | 7.8 | 13.9 | 0.00 | 0.23 | 0.12 | 81 | 1008.2 |
| 20260830164505 | 53 | 255 | 7.0 | 10.4 | 0.00 | 0.23 | 0.12 | 82 | 1008.1 |
| 20260830164005 | 53 | 241 | 4.3 | 8.7 | 0.00 | 0.23 | 0.12 | 83 | 1007.9 |
| 20260830163505 | 53 | 239 | 6.1 | 8.7 | 0.00 | 0.23 | 0.12 | 83 | 1007.8 |
| 20260830163004 | 53 | 240 | 4.3 | 7.8 | 0.00 | 0.23 | 0.12 | 84 | 1007.7 |
| 20260830162504 | 53 | 261 | 3.5 | 7.8 | 0.00 | 0.23 | 0.12 | 85 | 1007.8 |
| 20260830161505 | 52 | 242 | 0.9 | 7.0 | 0.00 | 0.23 | 0.12 | 88 | 1007.7 |
| 20260830161005 | 52 | 245 | 3.5 | 7.0 | 0.00 | 0.23 | 0.12 | 88 | 1007.5 |
| 20260830160005 | 53 | 315 | 5.2 | 10.4 | 0.00 | 0.23 | 0.12 | 87 | 1007.3 |
| 20260830155504 | 53 | 319 | 6.1 | 13.9 | 0.00 | 0.23 | 0.12 | 86 | 1006.6 |
| 20260830155005 | 53 | 278 | 8.7 | 13.9 | 0.00 | 0.23 | 0.12 | 83 | 1006.8 |
| 20260830154504 | 52 | 278 | 6.1 | 13.9 | 0.00 | 0.23 | 0.12 | 84 | 1006.5 |
| 20260830154005 | 52 | 239 | 2.6 | 13.0 | 0.00 | 0.23 | 0.12 | 83 | 1005.7 |
| 20260830153504 | 52 | 193 | 6.1 | 14.8 | 0.01 | 0.23 | 0.12 | 84 | 1005.4 |
| 20260830152005 | 51 | 241 | 1.7 | 7.0 | 0.07 | 0.23 | 0.12 | 88 | 1006.3 |
| 20260830151504 | 51 | 298 | 2.6 | 7.0 | 0.08 | 0.23 | 0.12 | 89 | 1006.7 |
| 20260830151004 | 51 | 286 | 4.3 | 7.0 | 0.09 | 0.23 | 0.12 | 89 | 1006.9 |
| 20260830150004 | 50 | 190 | 4.3 | 10.4 | 0.11 | 0.23 | 0.12 | 90 | 1006.5 |
| 20260830145505 | 50 | 192 | 6.1 | 10.4 | 0.11 | 0.23 | 0.12 | 90 | 1006.8 |
| 20260830145004 | 50 | 178 | 6.1 | 10.4 | 0.11 | 0.23 | 0.12 | 89 | 1006.9 |
| 20260830144504 | 50 | 203 | 7.8 | 13.9 | 0.11 | 0.23 | 0.12 | 89 | 1007.1 |
| 20260830144005 | 50 | 247 | 4.3 | 18.2 | 0.11 | 0.23 | 0.12 | 88 | 1006.8 |
| 20260830143504 | 50 | 257 | 11.3 | 20.0 | 0.10 | 0.22 | 0.11 | 87 | 1007.5 |
| 20260830143005 | 50 | 256 | 13.0 | 20.0 | 0.08 | 0.20 | 0.09 | 86 | 1007.8 |
| 20260830142504 | 51 | 262 | 13.0 | 24.3 | 0.06 | 0.18 | 0.07 | 86 | 1007.8 |
| 20260830142005 | 51 | 261 | 15.6 | 24.3 | 0.04 | 0.16 | 0.05 | 84 | 1007.8 |
| 20260830141505 | 51 | 253 | 19.1 | 24.3 | 0.03 | 0.15 | 0.04 | 82 | 1007.6 |
| 20260830141005 | 51 | 252 | 15.6 | 22.6 | 0.02 | 0.14 | 0.03 | 82 | 1007.4 |
| 20260830140005 | 54 | 278 | 15.6 | 25.2 | 0.00 | 0.12 | 0.01 | 75 | 1006.9 |
| 20260830135509 | 56 | 270 | 16.5 | 22.6 | 0.00 | 0.12 | 0.01 | 69 | 1006.9 |
| 20260830134005 | 56 | 231 | 4.3 | 7.0 | 0.00 | 0.13 | 0.01 | 74 | 1006.0 |
| 20260830133505 | 55 | 229 | 4.3 | 7.8 | 0.00 | 0.13 | 0.01 | 75 | 1005.9 |
| 20260830133004 | 55 | 188 | 2.6 | 7.8 | 0.00 | 0.15 | 0.01 | 76 | 1006.0 |
| 20260830132505 | 55 | 173 | 5.2 | 7.8 | 0.00 | 0.15 | 0.01 | 75 | 1005.9 |
| 20260830132005 | 55 | 186 | 5.2 | 7.8 | 0.00 | 0.16 | 0.01 | 76 | 1006.0 |
| 20260830131504 | 55 | 198 | 6.1 | 7.8 | 0.00 | 0.17 | 0.01 | 76 | 1006.1 |
| 20260830131004 | 55 | 197 | 4.3 | 5.2 | 0.00 | 0.18 | 0.01 | 76 | 1006.1 |
| 20260830125504 | 55 | 203 | 2.6 | 6.1 | 0.00 | 0.19 | 0.01 | 76 | 1005.8 |
| 20260830125004 | 55 | 215 | 4.3 | 7.8 | 0.01 | 0.19 | 0.01 | 76 | 1005.9 |
| 20260830124005 | 55 | 242 | 4.3 | 8.7 | 0.01 | 0.19 | 0.01 | 77 | 1005.7 |
| 20260830123505 | 55 | 241 | 5.2 | 7.8 | 0.01 | 0.19 | 0.01 | 78 | 1005.7 |
| 20260830123005 | 55 | 237 | 4.3 | 7.8 | 0.01 | 0.19 | 0.01 | 78 | 1005.7 |
| 20260830122505 | 55 | 228 | 4.3 | 7.8 | 0.01 | 0.19 | 0.01 | 78 | 1005.8 |